nws-alerts: Checking more than four warning/county codes can delay the loading of your pages. You should use a cron job to get the data.
EllijayWeather Station Historical Data
Daily Summary for December 30, 2018 Units:  Metric    English   Both
Daily Weekly Monthly Yearly Custom
  High: Low: Average:
Temperature: 13 °C 8.3 °C 10.3 °C
Dew Point: 12.6 °C 7.9 °C 10.1 °C
Humidity: 99% 96% 98%
Wind Speed: 1.4km/h 0km/h 0km/h
Wind Gust: 3.2km/h - -
Wind- - North
Pressure: 1024.6 hPa 1021.2 hPa -
Precipitation: 4.32 mm    
Historical Graphs
 
 
Tabular Data for December 30, 2018
Time Temperature Dew Point Pressure Wind Wind Speed Wind Gust Humidity Rainfall Rate (Hourly) solar
00:04 8.3 °C 7.9 °C 1023.9 hPa Calm     97% 0.51 mm meteobridge W/m2
00:08 8.3 °C 7.9 °C 1023.6 hPa Calm     97% 0.76 mm meteobridge W/m2
00:14 8.3 °C 7.9 °C 1023.2 hPa Calm     97% 0.76 mm meteobridge W/m2
00:19 8.3 °C 8 °C 1023.2 hPa Calm     98% 0.76 mm meteobridge W/m2
00:24 8.4 °C 8.1 °C 1023.2 hPa Calm     98% 0.76 mm meteobridge W/m2
00:29 8.4 °C 8.1 °C 1023.2 hPa Calm     98% 0.76 mm meteobridge W/m2
00:34 8.3 °C 8 °C 1023.2 hPa Calm     98% 0.76 mm meteobridge W/m2
00:39 8.4 °C 8.1 °C 1023.6 hPa Calm     98% 0.51 mm meteobridge W/m2
00:44 8.4 °C 8.1 °C 1023.6 hPa Calm     98% 0.51 mm meteobridge W/m2
00:49 8.4 °C 8.1 °C 1023.6 hPa Calm     98% 0.51 mm meteobridge W/m2
00:54 8.4 °C 8.1 °C 1023.6 hPa Calm     98% 0.25 mm meteobridge W/m2
00:59 8.4 °C 8.1 °C 1023.6 hPa Calm     98% 0.25 mm meteobridge W/m2
01:04 8.4 °C 8.1 °C 1023.9 hPa Calm     98% 0.25 mm meteobridge W/m2
01:09 8.4 °C 8.1 °C 1023.9 hPa Calm     98% 0 mm meteobridge W/m2
01:14 8.4 °C 8.1 °C 1024.3 hPa Calm     98% 0 mm meteobridge W/m2
01:19 8.4 °C 8.1 °C 1023.9 hPa Calm     98% 0.25 mm meteobridge W/m2
01:24 8.4 °C 8.1 °C 1023.9 hPa Calm     98% 0.25 mm meteobridge W/m2
01:29 8.4 °C 8.1 °C 1023.9 hPa Calm     98% 0.51 mm meteobridge W/m2
01:34 8.5 °C 8.2 °C 1023.6 hPa Calm     98% 0.51 mm meteobridge W/m2
01:39 8.4 °C 8.1 °C 1023.6 hPa Calm     98% 0.51 mm meteobridge W/m2
01:44 8.4 °C 8.1 °C 1023.2 hPa Calm     98% 0.51 mm meteobridge W/m2
01:49 8.4 °C 8.1 °C 1023.2 hPa Calm     98% 0.76 mm meteobridge W/m2
01:54 8.4 °C 8.1 °C 1023.2 hPa Calm     98% 1.02 mm meteobridge W/m2
01:59 8.4 °C 8.1 °C 1023.2 hPa Calm     98% 1.02 mm meteobridge W/m2
02:04 8.4 °C 8.1 °C 1022.9 hPa Calm     98% 1.27 mm meteobridge W/m2
02:09 8.4 °C 8.1 °C 1022.6 hPa Calm     98% 1.27 mm meteobridge W/m2
02:14 8.4 °C 8.1 °C 1022.6 hPa Calm     98% 1.27 mm meteobridge W/m2
02:19 8.4 °C 8.1 °C 1022.6 hPa Calm     98% 1.02 mm meteobridge W/m2
02:24 8.4 °C 8.1 °C 1022.6 hPa Calm     98% 1.02 mm meteobridge W/m2
02:29 8.4 °C 8.1 °C 1022.6 hPa Calm     98% 0.76 mm meteobridge W/m2
02:34 8.4 °C 8.1 °C 1022.6 hPa Calm     98% 0.76 mm meteobridge W/m2
02:39 8.4 °C 8.1 °C 1023.2 hPa Calm     98% 0.76 mm meteobridge W/m2
02:44 8.4 °C 8.1 °C 1022.9 hPa Calm     98% 0.76 mm meteobridge W/m2
02:49 8.4 °C 8.1 °C 1023.2 hPa Calm     98% 0.51 mm meteobridge W/m2
02:54 8.4 °C 8.1 °C 1022.2 hPa Calm     98% 0.25 mm meteobridge W/m2
02:59 8.4 °C 8.1 °C 1022.2 hPa Calm     98% 0.25 mm meteobridge W/m2
03:04 8.4 °C 8.1 °C 1022.9 hPa Calm     98% 0 mm meteobridge W/m2
03:09 8.4 °C 8.1 °C 1022.6 hPa Calm     98% 0 mm meteobridge W/m2
03:14 8.4 °C 8.1 °C 1022.6 hPa Calm     98% 0 mm meteobridge W/m2
03:19 8.4 °C 8.1 °C 1022.9 hPa Calm     98% 0 mm meteobridge W/m2
03:24 8.4 °C 8.1 °C 1022.9 hPa Calm     98% 0 mm meteobridge W/m2
03:29 8.5 °C 8.2 °C 1023.2 hPa Calm     98% 0 mm meteobridge W/m2
03:34 8.6 °C 8.3 °C 1022.9 hPa Calm     98% 0 mm meteobridge W/m2
03:38 8.6 °C 8.3 °C 1022.9 hPa Calm     98% 0 mm meteobridge W/m2
03:44 8.6 °C 8.3 °C 1022.9 hPa Calm     98% 0 mm meteobridge W/m2
03:49 8.6 °C 8.3 °C 1022.6 hPa Calm     98% 0 mm meteobridge W/m2
03:54 8.6 °C 8.3 °C 1022.6 hPa Calm     98% 0 mm meteobridge W/m2
03:59 8.6 °C 8.3 °C 1022.6 hPa Calm     98% 0 mm meteobridge W/m2
04:04 8.6 °C 8.3 °C 1022.2 hPa Calm     98% 0 mm meteobridge W/m2
04:09 8.6 °C 8.3 °C 1022.2 hPa Calm     98% 0 mm meteobridge W/m2
04:14 8.7 °C 8.4 °C 1022.2 hPa Calm     98% 0 mm meteobridge W/m2
04:19 8.7 °C 8.4 °C 1022.6 hPa Calm     98% 0 mm meteobridge W/m2
04:24 8.6 °C 8.3 °C 1022.6 hPa Calm     98% 0 mm meteobridge W/m2
04:29 8.7 °C 8.4 °C 1022.2 hPa Calm     98% 0 mm meteobridge W/m2
04:34 8.6 °C 8.3 °C 1021.9 hPa Calm     98% 0 mm meteobridge W/m2
04:39 8.7 °C 8.4 °C 1021.9 hPa Calm     98% 0 mm meteobridge W/m2
04:44 8.7 °C 8.4 °C 1021.9 hPa Calm     98% 0 mm meteobridge W/m2
04:49 8.7 °C 8.4 °C 1021.9 hPa Calm     98% 0 mm meteobridge W/m2
04:54 8.7 °C 8.4 °C 1022.2 hPa Calm     98% 0.25 mm meteobridge W/m2
04:59 8.7 °C 8.4 °C 1022.2 hPa Calm     98% 0.76 mm meteobridge W/m2
05:04 8.8 °C 8.5 °C 1021.9 hPa Calm     98% 0.76 mm meteobridge W/m2
05:09 8.7 °C 8.4 °C 1021.9 hPa Calm     98% 0.76 mm meteobridge W/m2
05:14 8.7 °C 8.4 °C 1021.6 hPa Calm     98% 1.02 mm meteobridge W/m2
05:19 8.7 °C 8.4 °C 1021.6 hPa Calm     98% 1.02 mm meteobridge W/m2
05:24 8.7 °C 8.4 °C 1021.9 hPa Calm     98% 1.02 mm meteobridge W/m2
05:29 8.8 °C 8.5 °C 1022.2 hPa Calm   1.6 km/h 98% 1.02 mm meteobridge W/m2
05:34 8.8 °C 8.5 °C 1021.9 hPa Calm     98% 1.02 mm meteobridge W/m2
05:39 8.8 °C 8.5 °C 1022.2 hPa Calm     98% 1.02 mm meteobridge W/m2
05:44 8.8 °C 8.5 °C 1021.9 hPa Calm     98% 1.02 mm meteobridge W/m2
05:49 8.8 °C 8.5 °C 1022.2 hPa Calm   3.2 km/h 98% 1.02 mm meteobridge W/m2
05:54 8.8 °C 8.5 °C 1022.2 hPa Calm     98% 0.76 mm meteobridge W/m2
05:59 8.8 °C 8.5 °C 1021.9 hPa Calm     98% 0.51 mm meteobridge W/m2
06:04 8.7 °C 8.4 °C 1022.2 hPa Calm     98% 0.25 mm meteobridge W/m2
06:09 8.7 °C 8.4 °C 1022.2 hPa Calm     98% 0.25 mm meteobridge W/m2
06:14 8.7 °C 8.4 °C 1022.2 hPa Calm     98% 0 mm meteobridge W/m2
06:19 8.7 °C 8.4 °C 1022.2 hPa Calm     98% 0 mm meteobridge W/m2
06:24 8.7 °C 8.4 °C 1022.2 hPa Calm     98% 0 mm meteobridge W/m2
06:29 8.7 °C 8.4 °C 1022.6 hPa Calm     98% 0 mm meteobridge W/m2
06:34 8.7 °C 8.4 °C 1022.6 hPa Calm     98% 0 mm meteobridge W/m2
06:39 8.7 °C 8.4 °C 1022.6 hPa Calm     98% 0.25 mm meteobridge W/m2
06:44 8.7 °C 8.4 °C 1022.6 hPa Calm     98% 0.25 mm meteobridge W/m2
06:49 8.7 °C 8.4 °C 1022.6 hPa Calm     98% 0.25 mm meteobridge W/m2
06:54 8.7 °C 8.4 °C 1022.6 hPa Calm     98% 0.25 mm meteobridge W/m2
06:59 8.7 °C 8.4 °C 1022.6 hPa Calm     98% 0.25 mm meteobridge W/m2
07:03 8.7 °C 8.4 °C 1022.6 hPa Calm     98% 0.25 mm meteobridge W/m2
07:09 8.7 °C 8.6 °C 1022.6 hPa Calm     99% 0.25 mm meteobridge W/m2
07:14 8.8 °C 8.5 °C 1022.6 hPa Calm     98% 0.25 mm meteobridge W/m2
07:19 8.8 °C 8.5 °C 1022.9 hPa Calm     98% 0.25 mm meteobridge W/m2
07:24 8.8 °C 8.5 °C 1022.9 hPa Calm     98% 0.25 mm meteobridge W/m2
07:28 8.8 °C 8.5 °C 1023.2 hPa Calm     98% 0.25 mm meteobridge W/m2
07:34 8.8 °C 8.5 °C 1023.2 hPa Calm     98% 0.25 mm meteobridge W/m2
07:39 8.8 °C 8.5 °C 1023.2 hPa Calm     98% 0 mm meteobridge W/m2
07:44 8.8 °C 8.5 °C 1023.2 hPa Calm     98% 0 mm meteobridge W/m2
07:49 8.8 °C 8.5 °C 1023.6 hPa Calm     98% 0 mm meteobridge W/m2
07:54 8.8 °C 8.5 °C 1023.6 hPa Calm     98% 0 mm meteobridge W/m2
07:59 8.8 °C 8.5 °C 1023.6 hPa Calm     98% 0 mm meteobridge W/m2
08:04 8.8 °C 8.5 °C 1023.9 hPa Calm     98% 0 mm meteobridge W/m2
08:09 8.8 °C 8.5 °C 1023.9 hPa Calm     98% 0 mm meteobridge W/m2
08:14 8.8 °C 8.5 °C 1023.9 hPa Calm     98% 0 mm meteobridge W/m2
08:19 8.8 °C 8.5 °C 1023.9 hPa Calm     98% 0 mm meteobridge W/m2
08:24 8.8 °C 8.5 °C 1023.9 hPa Calm     98% 0.25 mm meteobridge W/m2
08:29 8.8 °C 8.5 °C 1023.9 hPa Calm     98% 0.25 mm meteobridge W/m2
08:34 8.8 °C 8.5 °C 1023.9 hPa Calm     98% 0.25 mm meteobridge W/m2
08:39 8.8 °C 8.5 °C 1023.6 hPa Calm     98% 0.25 mm meteobridge W/m2
08:44 8.8 °C 8.5 °C 1023.6 hPa Calm     98% 0.25 mm meteobridge W/m2
08:49 8.8 °C 8.5 °C 1023.9 hPa Calm     98% 0.51 mm meteobridge W/m2
08:54 8.8 °C 8.5 °C 1023.9 hPa Calm     98% 0.51 mm meteobridge W/m2
08:59 8.8 °C 8.7 °C 1024.3 hPa Calm     99% 0.51 mm meteobridge W/m2
09:04 8.9 °C 8.8 °C 1024.3 hPa Calm     99% 0.51 mm meteobridge W/m2
09:09 8.9 °C 8.8 °C 1024.3 hPa Calm     99% 0.51 mm meteobridge W/m2
09:14 8.9 °C 8.8 °C 1024.3 hPa Calm     99% 0.51 mm meteobridge W/m2
09:19 9 °C 8.9 °C 1024.3 hPa Calm     99% 0.51 mm meteobridge W/m2
09:23 9 °C 8.9 °C 1024.3 hPa Calm     99% 0.25 mm meteobridge W/m2
09:29 9 °C 8.9 °C 1024.3 hPa Calm     99% 0.25 mm meteobridge W/m2
09:34 9.1 °C 9 °C 1023.9 hPa Calm     99% 0.25 mm meteobridge W/m2
09:39 9.1 °C 9 °C 1024.6 hPa Calm     99% 0.25 mm meteobridge W/m2
09:44 9.1 °C 9 °C 1024.6 hPa Calm     99% 0.25 mm meteobridge W/m2
09:49 9.1 °C 9 °C 1024.6 hPa Calm     99% 0 mm meteobridge W/m2
09:54 9.1 °C 9 °C 1024.6 hPa Calm     99% 0 mm meteobridge W/m2
09:59 9.2 °C 9.1 °C 1024.6 hPa Calm     99% 0 mm meteobridge W/m2
10:04 9.3 °C 9.2 °C 1024.3 hPa Calm     99% 0 mm meteobridge W/m2
10:09 9.3 °C 9.2 °C 1024.3 hPa Calm     99% 0 mm meteobridge W/m2
10:14 9.3 °C 9.2 °C 1024.3 hPa Calm     99% 0 mm meteobridge W/m2
10:19 9.3 °C 9.2 °C 1024.3 hPa Calm     99% 0 mm meteobridge W/m2
10:24 9.4 °C 9.3 °C 1024.3 hPa Calm     99% 0 mm meteobridge W/m2
10:29 9.4 °C 9.3 °C 1024.3 hPa Calm     99% 0 mm meteobridge W/m2
10:34 9.5 °C 9.4 °C 1024.3 hPa Calm     99% 0 mm meteobridge W/m2
10:39 9.4 °C 9.3 °C 1024.3 hPa Calm     99% 0 mm meteobridge W/m2
10:44 9.4 °C 9.1 °C 1024.3 hPa Calm     98% 0 mm meteobridge W/m2
10:49 9.6 °C 9.5 °C 1024.3 hPa Calm     99% 0 mm meteobridge W/m2
10:54 9.6 °C 9.5 °C 1023.9 hPa Calm     99% 0 mm meteobridge W/m2
10:59 9.7 °C 9.6 °C 1023.9 hPa Calm     99% 0 mm meteobridge W/m2
11:03 9.7 °C 9.6 °C 1023.9 hPa Calm     99% 0 mm meteobridge W/m2
11:09 9.8 °C 9.7 °C 1023.9 hPa Calm     99% 0 mm meteobridge W/m2
11:14 9.8 °C 9.7 °C 1023.9 hPa Calm     99% 0 mm meteobridge W/m2
11:19 9.9 °C 9.7 °C 1023.9 hPa Calm     99% 0 mm meteobridge W/m2
11:24 9.9 °C 9.6 °C 1023.9 hPa Calm     98% 0 mm meteobridge W/m2
11:29 9.9 °C 9.7 °C 1023.6 hPa Calm     99% 0 mm meteobridge W/m2
11:34 9.9 °C 9.6 °C 1023.2 hPa Calm     98% 0 mm meteobridge W/m2
11:39 9.9 °C 9.6 °C 1023.2 hPa Calm     98% 0 mm meteobridge W/m2
11:44 10.1 °C 9.8 °C 1023.2 hPa Calm     98% 0 mm meteobridge W/m2
11:49 10.1 °C 9.8 °C 1023.2 hPa Calm     98% 0 mm meteobridge W/m2
11:54 10.2 °C 10 °C 1023.2 hPa Calm     99% 0 mm meteobridge W/m2
11:59 10.3 °C 10.1 °C 1023.2 hPa Calm     99% 0 mm meteobridge W/m2
12:04 10.3 °C 10 °C 1022.9 hPa Calm     98% 0 mm meteobridge W/m2
12:09 10.4 °C 10.1 °C 1022.6 hPa Calm     98% 0 mm meteobridge W/m2
12:14 10.4 °C 10.1 °C 1022.6 hPa Calm     98% 0 mm meteobridge W/m2
12:19 10.6 °C 10.3 °C 1022.6 hPa Calm     98% 0 mm meteobridge W/m2
12:24 10.7 °C 10.4 °C 1022.6 hPa Calm     98% 0 mm meteobridge W/m2
12:29 10.7 °C 10.4 °C 1022.6 hPa Calm     98% 0 mm meteobridge W/m2
12:34 10.8 °C 10.5 °C 1022.6 hPa Calm     98% 0 mm meteobridge W/m2
12:39 10.8 °C 10.5 °C 1022.6 hPa Calm     98% 0 mm meteobridge W/m2
12:44 10.9 °C 10.6 °C 1022.2 hPa Calm     98% 0 mm meteobridge W/m2
12:49 11 °C 10.7 °C 1022.2 hPa Calm     98% 0 mm meteobridge W/m2
12:54 11.1 °C 10.8 °C 1022.2 hPa Calm     98% 0 mm meteobridge W/m2
12:59 11.1 °C 10.8 °C 1022.6 hPa Calm     98% 0 mm meteobridge W/m2
13:04 11.1 °C 10.8 °C 1022.2 hPa Calm     98% 0 mm meteobridge W/m2
13:09 11.1 °C 10.8 °C 1022.2 hPa Calm     98% 0 mm meteobridge W/m2
13:14 11.2 °C 10.9 °C 1021.9 hPa Calm     98% 0 mm meteobridge W/m2
13:19 11.2 °C 10.9 °C 1021.9 hPa North 1.4 km/h 1.6 km/h 98% 0 mm meteobridge W/m2
13:24 11.2 °C 10.9 °C 1021.9 hPa Calm     98% 0 mm meteobridge W/m2
13:29 11.2 °C 10.7 °C 1021.9 hPa Calm     97% 0 mm meteobridge W/m2
13:34 11.2 °C 10.9 °C 1021.9 hPa Calm     98% 0 mm meteobridge W/m2
13:39 11.2 °C 10.7 °C 1021.6 hPa Calm     97% 0 mm meteobridge W/m2
13:44 11.2 °C 10.9 °C 1021.9 hPa Calm     98% 0 mm meteobridge W/m2
13:49 11.3 °C 11 °C 1021.9 hPa Calm     98% 0 mm meteobridge W/m2
13:54 11.3 °C 11 °C 1021.6 hPa Calm     98% 0 mm meteobridge W/m2
13:59 11.4 °C 11.1 °C 1021.6 hPa Calm     98% 0 mm meteobridge W/m2
14:04 11.4 °C 11.1 °C 1021.6 hPa Calm     98% 0 mm meteobridge W/m2
14:09 11.6 °C 11.3 °C 1021.6 hPa Calm     98% 0 mm meteobridge W/m2
14:14 11.6 °C 11.3 °C 1021.6 hPa Calm     98% 0 mm meteobridge W/m2
14:19 11.7 °C 11.4 °C 1021.6 hPa Calm     98% 0 mm meteobridge W/m2
14:24 11.7 °C 11.2 °C 1021.6 hPa Calm     97% 0 mm meteobridge W/m2
14:29 11.7 °C 11.2 °C 1021.6 hPa Calm     97% 0 mm meteobridge W/m2
14:34 11.8 °C 11.5 °C 1021.6 hPa Calm     98% 0 mm meteobridge W/m2
14:39 11.9 °C 11.6 °C 1021.6 hPa Calm     98% 0 mm meteobridge W/m2
14:44 12.1 °C 11.8 °C 1021.6 hPa Calm     98% 0 mm meteobridge W/m2
14:49 12.1 °C 11.6 °C 1021.6 hPa Calm     97% 0 mm meteobridge W/m2
14:54 12.2 °C 11.7 °C 1021.6 hPa Calm     97% 0 mm meteobridge W/m2
14:59 12.2 °C 11.6 °C 1021.6 hPa Calm     96% 0 mm meteobridge W/m2
15:04 12.3 °C 11.8 °C 1021.6 hPa Calm     97% 0 mm meteobridge W/m2
15:09 12.4 °C 11.9 °C 1021.2 hPa Calm     97% 0 mm meteobridge W/m2
15:14 12.5 °C 12 °C 1021.2 hPa Calm     97% 0 mm meteobridge W/m2
15:19 12.6 °C 12 °C 1021.6 hPa Calm     96% 0 mm meteobridge W/m2
15:24 12.6 °C 12.1 °C 1021.6 hPa Calm     97% 0 mm meteobridge W/m2
15:29 12.7 °C 12.2 °C 1021.6 hPa Calm     97% 0 mm meteobridge W/m2
15:34 12.8 °C 12.3 °C 1021.2 hPa Calm     97% 0 mm meteobridge W/m2
15:39 12.8 °C 12.3 °C 1021.6 hPa Calm     97% 0 mm meteobridge W/m2
15:44 12.9 °C 12.4 °C 1021.6 hPa Calm     97% 0 mm meteobridge W/m2
15:49 13 °C 12.4 °C 1021.6 hPa Calm     96% 0 mm meteobridge W/m2
15:54 12.9 °C 12.4 °C 1021.9 hPa Calm     97% 0 mm meteobridge W/m2
15:59 13 °C 12.5 °C 1021.9 hPa Calm     97% 0 mm meteobridge W/m2
16:04 13 °C 12.5 °C 1021.6 hPa Calm     97% 0 mm meteobridge W/m2
16:09 13 °C 12.5 °C 1021.6 hPa Calm     97% 0 mm meteobridge W/m2
16:14 12.9 °C 12.4 °C 1021.6 hPa Calm     97% 0 mm meteobridge W/m2
16:19 12.9 °C 12.3 °C 1021.9 hPa Calm     96% 0 mm meteobridge W/m2
16:24 13 °C 12.5 °C 1021.9 hPa Calm     97% 0 mm meteobridge W/m2
16:29 12.9 °C 12.4 °C 1021.9 hPa Calm     97% 0 mm meteobridge W/m2
16:34 13 °C 12.5 °C 1021.9 hPa Calm     97% 0 mm meteobridge W/m2
16:39 13 °C 12.5 °C 1021.9 hPa Calm     97% 0 mm meteobridge W/m2
16:44 12.9 °C 12.4 °C 1022.2 hPa Calm     97% 0 mm meteobridge W/m2
16:49 12.9 °C 12.4 °C 1022.2 hPa Calm     97% 0 mm meteobridge W/m2
16:54 12.9 °C 12.4 °C 1022.2 hPa Calm     97% 0 mm meteobridge W/m2
16:59 12.9 °C 12.6 °C 1022.2 hPa Calm     98% 0 mm meteobridge W/m2
17:04 12.9 °C 12.4 °C 1022.2 hPa Calm     97% 0 mm meteobridge W/m2
17:09 12.8 °C 12.5 °C 1022.2 hPa Calm     98% 0 mm meteobridge W/m2
17:14 12.8 °C 12.5 °C 1022.2 hPa Calm     98% 0 mm meteobridge W/m2
17:19 12.7 °C 12.4 °C 1022.2 hPa Calm     98% 0 mm meteobridge W/m2
17:24 12.7 °C 12.2 °C 1022.2 hPa Calm     97% 0 mm meteobridge W/m2
17:29 12.6 °C 12.1 °C 1022.2 hPa Calm     97% 0 mm meteobridge W/m2
17:34 12.5 °C 12 °C 1022.2 hPa Calm     97% 0 mm meteobridge W/m2
17:39 12.4 °C 11.9 °C 1022.2 hPa Calm     97% 0 mm meteobridge W/m2
17:44 12.4 °C 11.9 °C 1022.2 hPa Calm     97% 0 mm meteobridge W/m2
17:49 12.3 °C 11.8 °C 1022.2 hPa Calm     97% 0 mm meteobridge W/m2
17:54 12.3 °C 11.8 °C 1022.2 hPa Calm     97% 0 mm meteobridge W/m2
17:59 12.3 °C 12 °C 1022.6 hPa Calm     98% 0 mm meteobridge W/m2
18:04 12.2 °C 11.9 °C 1022.6 hPa Calm     98% 0 mm meteobridge W/m2
18:09 12.2 °C 11.9 °C 1022.2 hPa Calm     98% 0 mm meteobridge W/m2
18:14 12.2 °C 11.9 °C 1022.2 hPa Calm     98% 0 mm meteobridge W/m2
18:19 12.2 °C 11.9 °C 1022.2 hPa Calm     98% 0 mm meteobridge W/m2
18:23 12.2 °C 11.9 °C 1022.2 hPa Calm     98% 0 mm meteobridge W/m2
18:29 12.1 °C 11.6 °C 1022.2 hPa Calm     97% 0 mm meteobridge W/m2
18:34 12.1 °C 11.8 °C 1021.9 hPa Calm     98% 0 mm meteobridge W/m2
18:39 12 °C 11.7 °C 1022.2 hPa Calm     98% 0 mm meteobridge W/m2
18:44 11.9 °C 11.6 °C 1022.2 hPa Calm     98% 0 mm meteobridge W/m2
18:49 11.9 °C 11.6 °C 1022.2 hPa Calm     98% 0 mm meteobridge W/m2
18:54 11.8 °C 11.5 °C 1022.2 hPa Calm     98% 0 mm meteobridge W/m2
18:59 11.8 °C 11.5 °C 1022.2 hPa Calm     98% 0 mm meteobridge W/m2
19:04 11.7 °C 11.4 °C 1022.2 hPa Calm     98% 0 mm meteobridge W/m2
19:09 11.7 °C 11.2 °C 1022.2 hPa Calm     97% 0 mm meteobridge W/m2
19:14 11.6 °C 11.1 °C 1022.2 hPa Calm     97% 0 mm meteobridge W/m2
19:19 11.6 °C 11.3 °C 1022.2 hPa Calm     98% 0 mm meteobridge W/m2
19:24 11.5 °C 11.2 °C 1022.9 hPa Calm     98% 0 mm meteobridge W/m2
19:29 11.4 °C 11.1 °C 1022.9 hPa Calm     98% 0 mm meteobridge W/m2
19:34 11.4 °C 11.1 °C 1022.9 hPa Calm     98% 0 mm meteobridge W/m2
19:39 11.4 °C 11.1 °C 1022.9 hPa Calm     98% 0 mm meteobridge W/m2
19:44 11.4 °C 11.1 °C 1022.9 hPa Calm     98% 0 mm meteobridge W/m2
19:49 11.4 °C 11.1 °C 1022.9 hPa Calm     98% 0 mm meteobridge W/m2
19:54 11.4 °C 11.1 °C 1022.6 hPa Calm     98% 0 mm meteobridge W/m2
19:59 11.4 °C 11.1 °C 1022.6 hPa Calm     98% 0 mm meteobridge W/m2
20:04 11.4 °C 11.1 °C 1022.6 hPa Calm     98% 0 mm meteobridge W/m2
20:09 11.4 °C 11.1 °C 1022.6 hPa Calm     98% 0 mm meteobridge W/m2
20:14 11.4 °C 11.1 °C 1022.9 hPa Calm     98% 0 mm meteobridge W/m2
20:19 11.4 °C 11.1 °C 1022.9 hPa Calm     98% 0 mm meteobridge W/m2
20:24 11.4 °C 11.1 °C 1022.6 hPa Calm     98% 0 mm meteobridge W/m2
20:29 11.4 °C 11.1 °C 1022.6 hPa Calm     98% 0 mm meteobridge W/m2
20:34 11.4 °C 11.1 °C 1022.6 hPa Calm     98% 0 mm meteobridge W/m2
20:39 11.5 °C 11.3 °C 1022.6 hPa Calm     99% 0 mm meteobridge W/m2
20:44 11.5 °C 11.3 °C 1022.2 hPa Calm     99% 0 mm meteobridge W/m2
20:49 11.5 °C 11.3 °C 1022.2 hPa Calm     99% 0 mm meteobridge W/m2
20:54 11.6 °C 11.4 °C 1022.2 hPa Calm   1.6 km/h 99% 0 mm meteobridge W/m2
20:59 11.5 °C 11.3 °C 1022.2 hPa Calm     99% 0 mm meteobridge W/m2
21:04 11.6 °C 11.4 °C 1022.6 hPa Calm     99% 0 mm meteobridge W/m2
21:09 11.6 °C 11.4 °C 1022.2 hPa Calm     99% 0 mm meteobridge W/m2
21:14 11.6 °C 11.4 °C 1022.2 hPa Calm     99% 0 mm meteobridge W/m2
21:18 11.6 °C 11.4 °C 1022.2 hPa Calm     99% 0 mm meteobridge W/m2
21:24 11.6 °C 11.4 °C 1022.2 hPa Calm     99% 0 mm meteobridge W/m2
21:29 11.6 °C 11.4 °C 1022.2 hPa Calm     99% 0 mm meteobridge W/m2
21:34 11.7 °C 11.5 °C 1022.2 hPa Calm     99% 0 mm meteobridge W/m2
21:39 11.7 °C 11.4 °C 1022.2 hPa Calm     98% 0 mm meteobridge W/m2
21:44 11.7 °C 11.5 °C 1022.2 hPa Calm     99% 0 mm meteobridge W/m2
21:49 11.7 °C 11.5 °C 1022.2 hPa Calm     99% 0 mm meteobridge W/m2
21:54 11.7 °C 11.5 °C 1022.2 hPa Calm     99% 0 mm meteobridge W/m2
21:59 11.7 °C 11.5 °C 1022.2 hPa Calm     99% 0 mm meteobridge W/m2
22:04 11.7 °C 11.5 °C 1021.9 hPa Calm     99% 0 mm meteobridge W/m2
22:09 11.7 °C 11.4 °C 1021.9 hPa Calm     98% 0 mm meteobridge W/m2
22:14 11.7 °C 11.4 °C 1021.9 hPa Calm     98% 0 mm meteobridge W/m2
22:19 11.7 °C 11.4 °C 1021.9 hPa Calm     98% 0 mm meteobridge W/m2
22:24 11.7 °C 11.4 °C 1021.9 hPa Calm     98% 0 mm meteobridge W/m2
22:29 11.8 °C 11.5 °C 1021.9 hPa Calm     98% 0 mm meteobridge W/m2
22:34 11.8 °C 11.5 °C 1021.9 hPa Calm     98% 0 mm meteobridge W/m2
22:39 11.8 °C 11.5 °C 1021.9 hPa Calm     98% 0 mm meteobridge W/m2
22:44 11.8 °C 11.5 °C 1021.9 hPa Calm   1.6 km/h 98% 0 mm meteobridge W/m2
22:49 11.8 °C 11.5 °C 1021.9 hPa Calm     98% 0 mm meteobridge W/m2
22:54 11.8 °C 11.5 °C 1021.9 hPa Calm     98% 0 mm meteobridge W/m2
22:59 11.8 °C 11.5 °C 1021.6 hPa Calm     98% 0 mm meteobridge W/m2
23:04 11.8 °C 11.5 °C 1021.9 hPa Calm     98% 0 mm meteobridge W/m2
23:09 11.8 °C 11.5 °C 1021.9 hPa Calm     98% 0.25 mm meteobridge W/m2
23:14 11.8 °C 11.5 °C 1021.6 hPa Calm     98% 0.25 mm meteobridge W/m2
23:19 11.8 °C 11.5 °C 1021.6 hPa Calm     98% 0.25 mm meteobridge W/m2
23:24 11.8 °C 11.5 °C 1021.6 hPa Calm     98% 0.76 mm meteobridge W/m2
23:29 11.8 °C 11.5 °C 1021.6 hPa Calm     98% 1.02 mm meteobridge W/m2
23:34 11.8 °C 11.5 °C 1021.6 hPa Calm     98% 1.02 mm meteobridge W/m2
23:39 11.8 °C 11.6 °C 1021.2 hPa Calm     99% 1.02 mm meteobridge W/m2
23:44 11.8 °C 11.6 °C 1021.6 hPa Calm     99% 1.02 mm meteobridge W/m2
23:49 11.8 °C 11.6 °C 1021.6 hPa Calm     99% 1.02 mm meteobridge W/m2
23:54 11.8 °C 11.6 °C 1021.6 hPa Calm     99% 1.02 mm meteobridge W/m2
23:59 11.8 °C 11.6 °C 1021.6 hPa Calm     99% 1.02 mm meteobridge W/m2
EllijayWeather
Compliments of Weather Underground - 2.5 mb